TimeEST,TemperatureF,Dew PointF,Humidity,Sea Level PressureIn,VisibilityMPH,Wind Direction,Wind SpeedMPH,Gust SpeedMPH,PrecipitationIn,Events,Conditions,WindDirDegrees,DateUTC
12:15 AM,34.3,19.6,55,29.86,10.0,SW,6.9,-,N/A,,Clear,230,2014-01-26 05:15:00
12:35 AM,36.3,19.4,50,29.87,10.0,SW,9.2,-,N/A,,Clear,230,2014-01-26 05:35:00
12:55 AM,36.5,19.4,50,29.87,10.0,WSW,9.2,-,N/A,,Clear,240,2014-01-26 05:55:00
1:15 AM,36.3,19.2,50,29.87,10.0,WSW,8.1,-,N/A,,Clear,240,2014-01-26 06:15:00
1:35 AM,35.8,19.0,51,29.88,10.0,WSW,6.9,-,N/A,,Clear,240,2014-01-26 06:35:00
1:55 AM,34.2,19.4,55,29.88,10.0,SW,4.6,-,N/A,,Clear,230,2014-01-26 06:55:00
2:15 AM,34.5,19.4,54,29.89,10.0,SW,6.9,-,N/A,,Clear,230,2014-01-26 07:15:00
2:35 AM,32.9,19.8,59,29.90,10.0,SW,5.8,-,N/A,,Clear,230,2014-01-26 07:35:00
2:55 AM,34.0,19.4,55,29.91,10.0,SW,6.9,-,N/A,,Clear,230,2014-01-26 07:55:00
3:15 AM,33.3,19.4,57,29.92,10.0,SW,5.8,-,N/A,,Clear,230,2014-01-26 08:15:00
3:35 AM,32.4,19.4,59,29.92,10.0,SW,4.6,-,N/A,,Clear,230,2014-01-26 08:35:00
3:55 AM,32.4,19.8,60,29.93,10.0,WSW,4.6,-,N/A,,Clear,240,2014-01-26 08:55:00
4:15 AM,31.1,19.6,62,29.93,10.0,Calm,Calm,-,N/A,,Clear,0,2014-01-26 09:15:00
4:35 AM,28.4,20.8,73,29.94,10.0,Calm,Calm,-,N/A,,Clear,0,2014-01-26 09:35:00
4:55 AM,28.0,21.2,76,29.95,10.0,Calm,Calm,-,N/A,,Clear,0,2014-01-26 09:55:00
5:15 AM,27.3,21.6,79,29.95,10.0,Calm,Calm,-,N/A,,Clear,0,2014-01-26 10:15:00
5:35 AM,26.4,20.5,78,29.95,10.0,Calm,Calm,-,N/A,,Clear,0,2014-01-26 10:35:00
5:55 AM,26.6,20.8,79,29.96,10.0,Calm,Calm,-,N/A,,Clear,0,2014-01-26 10:55:00
6:15 AM,25.9,21.2,82,29.96,10.0,Calm,Calm,-,N/A,,Clear,0,2014-01-26 11:15:00
6:35 AM,25.2,21.0,84,29.97,10.0,Calm,Calm,-,N/A,,Clear,0,2014-01-26 11:35:00
6:55 AM,25.5,20.7,82,29.99,10.0,Calm,Calm,-,N/A,,Clear,0,2014-01-26 11:55:00
7:15 AM,24.8,21.0,86,30.00,10.0,Calm,Calm,-,N/A,,Clear,0,2014-01-26 12:15:00
7:35 AM,24.3,21.4,89,30.01,10.0,Calm,Calm,-,N/A,,Clear,0,2014-01-26 12:35:00
7:55 AM,25.3,22.3,88,30.01,10.0,Calm,Calm,-,N/A,,Clear,0,2014-01-26 12:55:00
8:15 AM,27.7,23.4,84,30.00,10.0,Calm,Calm,-,N/A,,Clear,0,2014-01-26 13:15:00
8:35 AM,31.5,23.9,74,30.01,10.0,Calm,Calm,-,N/A,,Clear,0,2014-01-26 13:35:00
8:55 AM,34.9,21.9,59,30.02,10.0,SW,3.5,-,N/A,,Clear,220,2014-01-26 13:55:00
9:15 AM,36.9,21.9,55,30.03,10.0,SW,3.5,-,N/A,,Clear,230,2014-01-26 14:15:00
9:35 AM,39.4,21.7,49,30.03,10.0,WSW,5.8,-,N/A,,Clear,250,2014-01-26 14:35:00
9:55 AM,41.0,20.7,44,30.03,10.0,West,4.6,-,N/A,,Clear,260,2014-01-26 14:55:00
10:15 AM,41.2,19.8,42,30.03,10.0,Calm,Calm,-,N/A,,Clear,0,2014-01-26 15:15:00
10:35 AM,42.3,19.4,40,30.01,10.0,Calm,Calm,-,N/A,,Clear,0,2014-01-26 15:35:00
10:55 AM,43.7,18.7,37,30.01,10.0,Calm,Calm,-,N/A,,Clear,0,2014-01-26 15:55:00
11:15 AM,44.8,18.7,35,30.00,10.0,Calm,Calm,-,N/A,,Clear,0,2014-01-26 16:15:00
11:35 AM,46.0,18.5,33,29.98,10.0,SSW,4.6,-,N/A,,Clear,210,2014-01-26 16:35:00
11:55 AM,47.3,17.8,31,29.97,10.0,SE,4.6,-,N/A,,Clear,140,2014-01-26 16:55:00
12:15 PM,49.1,19.2,31,29.96,10.0,South,3.5,-,N/A,,Clear,190,2014-01-26 17:15:00
12:35 PM,48.9,18.5,30,29.95,10.0,SW,5.8,-,N/A,,Clear,220,2014-01-26 17:35:00
12:55 PM,49.5,18.7,30,29.94,10.0,South,5.8,-,N/A,,Clear,190,2014-01-26 17:55:00
1:15 PM,52.2,19.0,27,29.93,10.0,SSE,5.8,16.1,N/A,,Clear,160,2014-01-26 18:15:00
1:35 PM,52.0,17.1,25,29.93,10.0,South,6.9,-,N/A,,Clear,170,2014-01-26 18:35:00
1:55 PM,52.9,17.2,25,29.92,10.0,SSW,5.8,-,N/A,,Clear,210,2014-01-26 18:55:00
2:15 PM,52.9,16.9,24,29.92,10.0,South,3.5,-,N/A,,Clear,190,2014-01-26 19:15:00
2:35 PM,53.2,17.2,24,29.91,10.0,SSW,3.5,-,N/A,,Clear,210,2014-01-26 19:35:00
2:55 PM,54.3,18.0,24,29.90,10.0,South,6.9,-,N/A,,Clear,170,2014-01-26 19:55:00
3:15 PM,53.6,17.6,24,29.90,10.0,SSW,4.6,-,N/A,,Clear,200,2014-01-26 20:15:00
3:35 PM,53.2,18.3,25,29.90,10.0,SSW,3.5,-,N/A,,Clear,200,2014-01-26 20:35:00
3:55 PM,53.1,18.3,26,29.90,10.0,SSW,4.6,-,N/A,,Clear,210,2014-01-26 20:55:00
4:15 PM,52.3,18.5,26,29.90,10.0,SSW,3.5,-,N/A,,Clear,200,2014-01-26 21:15:00
4:35 PM,51.8,19.0,28,29.91,10.0,SW,3.5,-,N/A,,Clear,220,2014-01-26 21:35:00
4:55 PM,50.5,19.0,29,29.90,10.0,Calm,Calm,-,N/A,,Clear,0,2014-01-26 21:55:00
5:15 PM,49.6,19.4,30,29.90,10.0,SSW,3.5,-,N/A,,Clear,210,2014-01-26 22:15:00
5:35 PM,48.2,19.9,33,29.91,10.0,Calm,Calm,-,N/A,,Clear,0,2014-01-26 22:35:00
5:55 PM,46.0,23.7,42,29.92,10.0,Calm,Calm,-,N/A,,Clear,0,2014-01-26 22:55:00
6:15 PM,46.4,24.1,42,29.93,10.0,Calm,Calm,-,N/A,,Clear,0,2014-01-26 23:15:00
6:35 PM,45.7,25.5,45,29.93,10.0,Calm,Calm,-,N/A,,Clear,0,2014-01-26 23:35:00
6:55 PM,44.8,26.6,49,29.93,10.0,South,3.5,-,N/A,,Clear,190,2014-01-26 23:55:00
7:15 PM,44.6,27.5,51,29.93,10.0,Calm,Calm,-,N/A,,Clear,0,2014-01-27 00:15:00
7:35 PM,44.2,28.4,54,29.93,10.0,Calm,Calm,-,N/A,,Clear,0,2014-01-27 00:35:00
7:55 PM,43.2,29.3,58,29.93,10.0,Calm,Calm,-,N/A,,Clear,0,2014-01-27 00:55:00
8:15 PM,42.4,30.2,62,29.93,10.0,Calm,Calm,-,N/A,,Clear,0,2014-01-27 01:15:00
8:35 PM,41.5,30.2,64,29.94,10.0,Calm,Calm,-,N/A,,Clear,0,2014-01-27 01:35:00
8:55 PM,41.7,31.1,66,29.94,10.0,Calm,Calm,-,N/A,,Clear,0,2014-01-27 01:55:00
9:15 PM,41.0,31.3,68,29.94,10.0,Calm,Calm,-,N/A,,Clear,0,2014-01-27 02:15:00
9:35 PM,40.1,31.3,71,29.95,10.0,Calm,Calm,-,N/A,,Clear,0,2014-01-27 02:35:00
9:55 PM,39.7,31.6,73,29.95,10.0,Calm,Calm,-,N/A,,Clear,0,2014-01-27 02:55:00
10:15 PM,39.9,32.0,73,29.95,10.0,Calm,Calm,-,N/A,,Clear,0,2014-01-27 03:15:00
10:35 PM,39.0,32.0,76,29.95,10.0,Calm,Calm,-,N/A,,Clear,0,2014-01-27 03:35:00
10:55 PM,39.7,32.0,74,29.95,10.0,Calm,Calm,-,N/A,,Clear,0,2014-01-27 03:55:00
11:15 PM,40.6,32.2,72,29.94,10.0,Calm,Calm,-,N/A,,Clear,0,2014-01-27 04:15:00
11:35 PM,41.0,32.4,71,29.94,10.0,South,3.5,-,N/A,,Clear,170,2014-01-27 04:35:00
11:55 PM,41.4,32.4,70,29.94,10.0,Calm,Calm,-,N/A,,Clear,0,2014-01-27 04:55:00